Weather History for Marathon, FL

Change the Weather History Date:

Friday, October 19, 2012

  Actual Average Record
Temperature  
Mean Temperature 86 °F 80 °F  
Max Temperature 91 °F 85 °F 91 °F (2007)
Min Temperature 80 °F 75 °F 72 °F (2011)
Degree Days  
Heating Degree Days 0 0  
Month to date heating degree days 0 0  
Since 1 July heating degree days 0 0  
Cooling Degree Days 21 15  
Month to date cooling degree days 355 318  
Year to date cooling degree days 4598 4272  
Growing Degree Days 35 (Base 50)    
Moisture  
Dew Point 77 °F    
Average Humidity 76    
Maximum Humidity 88    
Minimum Humidity 64    
Precipitation  
Precipitation 0.00 in 0.12 in 4.66 in (2011)
Month to date precipitation 2.76 3.09  
Year to date precipitation 42.89 39.64  
Snow  
Snow 0.00 in - - ()
Month to date snowfall 0.0  
Since 1 July snowfall 0.0  
Since 1 September snowfall 0.0  
Snow Depth 0.00 in    
Sea Level Pressure  
Sea Level Pressure 29.86 in    
Wind  
Wind Speed 2 mph (SSW)    
Max Wind Speed 8 mph    
Max Gust Speed 10 mph    
Visibility 10 miles    
Events Thunderstorm    
T = Trace of Precipitation, MM = Missing Value Source: NWS Daily Summary

Daily Weather History Graph

Daily Weather History Graph

Search for Another Location

Airport:

Trip Planner

Search our weather history database for the weather conditions in past years. The results will help you decide how hot, cold, wet, or windy it might be!

Date:

Astronomy

Oct. 19, 2012 Rise Set
Actual Time 7:24 AM EDT 6:53 PM EDT
Civil Twilight 7:01 AM EDT 7:16 PM EDT
Nautical Twilight 6:34 AM EDT 7:43 PM EDT
Astronomical Twilight 6:08 AM EDT 8:09 PM EDT
Moon 11:45 AM EDT 10:50 PM EDT
Length of Visible Light 12h 15m
Length of Day
11h 28m
Waxing Crescent, 23% of the Moon is Illuminated
Oct 19
Waxing Crescent
Oct 21
First Quarter
Oct 29
Full
Nov 6
Last Quarter
Nov 13
New

Hourly Weather History & Observations

Time (EDT) Temp. Heat Index Dew Point Humidity Pressure Visibility Wind Dir Wind Speed Gust Speed Precip Events Conditions
12:53 AM 82.9 °F 90.8 °F 75.9 °F 79% 29.87 in 10.0 mi South 6.9 mph - N/A   Mostly Cloudy
1:53 AM 82.9 °F 91.8 °F 77.0 °F 82% 29.86 in 10.0 mi South 4.6 mph - N/A   Clear
2:53 AM 82.9 °F 91.8 °F 77.0 °F 82% 29.86 in 10.0 mi Calm Calm - N/A   Clear
3:53 AM 82.0 °F 90.2 °F 77.0 °F 85% 29.84 in 10.0 mi South 4.6 mph - N/A   Clear
4:53 AM 82.0 °F 91.0 °F 78.1 °F 88% 29.84 in 10.0 mi South 4.6 mph - N/A   Partly Cloudy
5:53 AM 82.0 °F 90.2 °F 77.0 °F 85% 29.85 in 10.0 mi SSW 4.6 mph - N/A   Clear
6:04 AM 82.4 °F 90.9 °F 77.0 °F 84% 29.85 in 10.0 mi Variable 3.5 mph - N/A Thunderstorm Clear
6:19 AM 82.4 °F 90.9 °F 77.0 °F 84% 29.85 in 10.0 mi South 4.6 mph - N/A   Clear
6:53 AM 82.0 °F 91.0 °F 78.1 °F 88% 29.86 in 10.0 mi SSW 4.6 mph - N/A   Scattered Clouds
7:53 AM 82.0 °F 91.6 °F 79.0 °F 90% 29.86 in 10.0 mi WSW 3.5 mph - N/A   Clear
8:53 AM 84.0 °F 96.0 °F 79.0 °F 85% 29.88 in 10.0 mi SW 4.6 mph - N/A   Clear
9:53 AM 87.1 °F 101.5 °F 79.0 °F 77% 29.89 in 10.0 mi SSW 4.6 mph - N/A   Clear
10:53 AM 88.0 °F 100.2 °F 77.0 °F 70% 29.90 in 10.0 mi SW 5.8 mph - N/A   Clear
11:53 AM 89.1 °F 101.4 °F 77.0 °F 67% 29.90 in 10.0 mi Variable 3.5 mph - N/A   Clear
12:31 PM 89.6 °F 102.2 °F 77.0 °F 66% 29.89 in 10.0 mi Variable 3.5 mph - N/A   Mostly Cloudy
12:53 PM 89.1 °F 100.2 °F 75.9 °F 65% 29.88 in 10.0 mi West 3.5 mph - N/A   Mostly Cloudy
1:53 PM 88.0 °F 98.5 °F 75.9 °F 67% 29.86 in 10.0 mi WNW 3.5 mph - N/A   Mostly Cloudy
2:03 PM 89.6 °F 99.8 °F 75.2 °F 62% 29.86 in 10.0 mi Variable 3.5 mph - N/A   Mostly Cloudy
2:53 PM 86.0 °F 96.9 °F 77.0 °F 74% 29.84 in 10.0 mi NW 4.6 mph - N/A   Partly Cloudy
3:53 PM 84.9 °F 94.1 °F 75.9 °F 74% 29.84 in 10.0 mi Calm Calm - N/A   Partly Cloudy
4:07 PM 84.2 °F 92.3 °F 75.2 °F 74% 29.84 in 10.0 mi Calm Calm - N/A   Mostly Cloudy
4:53 PM 84.9 °F 94.1 °F 75.9 °F 74% 29.83 in 10.0 mi Calm Calm - N/A   Mostly Cloudy
5:06 PM 84.2 °F 92.3 °F 75.2 °F 74% 29.84 in 10.0 mi Variable 3.5 mph - N/A   Scattered Clouds
5:13 PM 84.2 °F 92.3 °F 75.2 °F 74% 29.84 in 10.0 mi ENE 3.5 mph - N/A   Mostly Cloudy
5:33 PM 84.2 °F 92.3 °F 75.2 °F 74% 29.84 in 10.0 mi ENE 4.6 mph - N/A   Mostly Cloudy
5:53 PM 84.0 °F 92.6 °F 75.9 °F 76% 29.84 in 10.0 mi Calm Calm - N/A   Scattered Clouds
6:53 PM 82.9 °F 90.8 °F 75.9 °F 79% 29.84 in 10.0 mi Calm Calm - N/A   Clear
7:53 PM 82.0 °F 89.4 °F 75.9 °F 82% 29.86 in 10.0 mi Calm Calm - N/A   Clear
8:53 PM 81.0 °F 87.3 °F 75.9 °F 85% 29.88 in 10.0 mi Calm Calm - N/A   Clear
9:53 PM 82.0 °F 89.4 °F 75.9 °F 82% 29.89 in 10.0 mi Calm Calm - N/A   Clear
10:53 PM 81.0 °F 87.3 °F 75.9 °F 85% 29.90 in 10.0 mi Calm Calm - N/A   Clear
11:53 PM 80.1 °F 85.4 °F 75.9 °F 87% 29.89 in 10.0 mi Calm Calm - N/A   Clear